This demonstration page uses our WeatherBlox Daily Observations layout. Learn more.

39.92423, -83.80882

Hourly Observations for December 31, 2017

Temp ( °F °C ) Dew Point ( °F °C ) Humidity (%) Winds ( mph kmh ) Pressure ( in mb ) Visibility ( mi km ) Precip ( " mm )
1:56 am 01:56 Partly Cloudy 1 -17.2 -5 -20.6 75 75 NW 7 11 30.44 1031 10 16.0934 0 0
2:56 am 02:56 Mostly Cloudy 1 -17.2 -5 -20.6 75 75 N 6 9 30.44 1031 10 16.0934 0 0
3:56 am 03:56 Cloudy 1 -17.2 -5 -20.6 75 75 NNW 5 7 30.43 1031 10 16.0934 0 0
4:56 am 04:56 Cloudy 2 -16.7 -4 -20 76 76 NW 3 6 30.42 1030 10 16.0934 0 0
5:56 am 05:56 Cloudy 2 -16.7 -4 -20 76 76 WNW 6 9 30.44 1031 10 16.0934 0 0
6:56 am 06:56 Cloudy 2 -16.7 -4 -20 76 76 NW 6 9 30.48 1032 10 16.0934 0 0
7:53 am 07:53 Cloudy with Light Snow 1 -17 -2 -19 85 85 NNW 5 7 30.5 1033 2 3.21868 0 0.0254
8:06 am 08:06 Cloudy with Light Snow 1 -17 -2 -19 85 85 NNW 5 7 30.5 1033 0.75 1.207005 0 0.0254
8:37 am 08:37 Cloudy with Light Snow 3 -16 -2 -19 78 78 NNW 6 9 30.53 1034 1 1.60934 0 0.0254
8:56 am 08:56 Cloudy with Light Snow 3 -16.1 -1 -18.3 83 83 NNW 6 9 30.49 1033 1.25 2.011675 0 0.0254
9:05 am 09:05 Cloudy with Light Snow 3 -16 0 -18 85 85 NNW 6 9 30.53 1034 1.5 2.41401 0 0.0254
9:20 am 09:20 Cloudy with Light Snow 3 -16 0 -18 85 85 NNW 6 9 30.53 1034 1 1.60934 0 0.0254
9:33 am 09:33 Cloudy with Light Snow 3 -16 0 -18 85 85 NNW 6 9 30.53 1034 0.75 1.207005 0 0.0254
9:56 am 09:56 Cloudy with Light Snow 4 -15.6 0 -17.8 83 83 N 5 7 30.5 1033 0.75 1.207005 0 0.0254
10:15 am 10:15 Cloudy with Snow 5 -15 0 -18 78 78 N 3 6 30.53 1034 0.5 0.80467 0 0.0254
10:32 am 10:32 Cloudy with Light Snow 7 -14 1 -17 78 78 N 3 6 30.53 1034 0.75 1.207005 0 0.0254
10:42 am 10:42 Cloudy with Light Snow 7 -14 1 -17 78 78 N 3 6 30.53 1034 1 1.60934 0 0.0254
10:52 am 10:52 Cloudy with Light Snow 7 -14 1 -17 78 78 NW 5 7 30.56 1035 1.5 2.41401 0 0.0254
10:56 am 10:56 Cloudy with Light Snow 7 -13.9 2 -16.7 80 80 NW 3 6 30.53 1034 1.75 2.816345 0 0.0254
11:13 am 11:13 Cloudy with Light Snow 12 -11 9 -13 85 85 Calm 30.5 1033 2 3.21868 0 0.0254
11:42 am 11:42 Cloudy with Light Snow 23 -5 16 -9 74 74 Calm 30.48 1032 3 4.82802 0.01 0.254
11:56 am 11:56 Mostly Cloudy with Scattered Snow Showers 17 -8.3 4 -15.6 56 56 NNW 5 7 30.5 1033 6 9.65604 0.01 0.254
12:56 pm 12:56 Sunny with Light Snow 26 -3.3 10 -12.2 51 51 WNW 3 6 30.48 1032 9 14.48406 0 0.0254
1:56 pm 13:56 Mostly Cloudy 26 -3.3 8 -13.3 46 46 WNW 5 7 30.47 1032 10 16.0934 0 0.0254
2:56 pm 14:56 Cloudy 15 -9.4 6 -14.4 67 67 NNW 8 13 30.48 1032 10 16.0934 0 0
3:28 pm 15:28 Cloudy 12 -11 7 -14 79 79 NNW 9 15 30.5 1033 10 16.0934 0 0.0254
3:56 pm 15:56 Cloudy 13 -10.6 6 -14.4 74 74 NW 7 11 30.5 1033 10 16.0934 0 0.0254
4:56 pm 16:56 Cloudy 11 -11.7 5 -15 77 77 NNW 9 15 30.51 1033 10 16.0934 0 0.0254
5:56 pm 17:56 Partly Cloudy 6 -14.4 2 -16.7 83 83 NNW 8 13 30.53 1034 10 16.0934 0 0.0254
6:56 pm 18:56 Clear 5 -15 1 -17.2 83 83 NW 7 11 30.55 1034 10 16.0934 0 0
7:56 pm 19:56 Mostly Clear 1 -17.2 -3 -19.4 83 83 NW 5 7 30.57 1035 10 16.0934 0 0
8:56 pm 20:56 Clear -1 -18.3 -6 -21.1 79 79 WNW 6 9 30.58 1035 10 16.0934 0 0
9:56 pm 21:56 Clear with Mist and Fog -2 -18.9 -6 -21.1 83 83 W 6 9 30.58 1036 6 9.65604 0 0
10:56 pm 22:56 Hazy -2 -18.9 -7 -21.7 79 79 WSW 3 6 30.58 1036 6 9.65604 0 0
11:56 pm 23:56 Clear -5 -20.6 -8 -22.2 87 87 W 8 13 30.59 1036 7 11.26538 0 0

Powered by AerisWeather